Regional Weather Roundup
Issued by NWS

Home | Current Version | Previous Version | Text Only | Print | Product List | Glossary Off
Versions: 1 2 3 4 5 6 7 8 9 10 11 12 13 14 15 16 17 18 19 20 21 22 23 24 25 26 27 28 29 30 31 32 33 34 35 36 37 38 39 40 41 42 43 44 45 46 47 48 49 50

000
ASUS43 KOAX 040802
RWRNE

WEATHER ROUNDUP FOR NEBRASKA
NATIONAL WEATHER SERVICE OMAHA NE
300 AM CDT SAT JUL 04 2015

NOTES: SATELLITE DATA IS BEING USED TO AUGMENT CLOUD COVER ABOVE
       12000 FEET.
       "FAIR" INDICATES FEW OR NO CLOUDS BELOW 12,000 FEET WITH NO
       SIGNIFICANT WEATHER AND/OR OBSTRUCTIONS TO VISIBILITY.

  * THESE STATIONS DO NOT REPORT WEATHER SUCH AS RAIN...SNOW OR FOG.

NEZ001>004-019>022-054>056-040900-
NEBRASKA PANHANDLE

CITY           SKY/WX    TMP DP  RH WIND       PRES   REMARKS
SCOTTSBLUFF    MOCLDY    70  58  65 SE5       30.01R
ALLIANCE       MOCLDY    66  60  81 S12       30.00S
CHADRON        MOCLDY    69  57  65 SW6       29.95R
KIMBALL          N/A    N/A N/A N/A MISG        N/A
SIDNEY         MOCLDY    66  59  78 S14       30.03F
$$

NEZ057>060-069>072-079>082-040900-
SOUTHWEST NEBRASKA

CITY           SKY/WX    TMP DP  RH WIND       PRES   REMARKS
NORTH PLATTE   CLEAR     66  59  78 SE5       30.02S
IMPERIAL       PTCLDY    67  57  70 S10       30.02F
LEXINGTON      PTCLDY    64  61  91 SE6       30.02S
MCCOOK         PTCLDY    66  59  78 SE8       30.01F
$$

NEZ005>010-023>029-035>040-094-040900-
NORTH CENTRAL NEBRASKA

CITY           SKY/WX    TMP DP  RH WIND       PRES   REMARKS
VALENTINE      CLEAR     64  59  83 SW6       29.96F
AINSWORTH      CLEAR     62  61  96 S7        29.98F
BROKEN BOW     CLEAR     61  58  90 SE5       30.00F
ORD            CLEAR     62  60  93 SE3       29.99F FOG
$$

NEZ041-046>049-061>064-073>077-083>087-040900-
SOUTH CENTRAL NEBRASKA

CITY           SKY/WX    TMP DP  RH WIND       PRES   REMARKS
GRAND ISLAND   CLEAR     62  59  90 S6        30.01F
AURORA         CLEAR     64  62  95 S6        30.01S
HASTINGS       CLEAR     65  61  87 S7        30.01F
KEARNEY *      CLEAR     61  57  88 S7        30.02S
$$

NEZ011>018-030>034-042>045-040900-
NORTHEAST NEBRASKA

CITY           SKY/WX    TMP DP  RH WIND       PRES   REMARKS
NORFOLK        CLEAR     59  58  96 CALM      29.99S FOG
COLUMBUS *       N/A     57  52  82 CALM      29.99S VSB 1/2
FREMONT        CLEAR     65  58  77 CALM      29.99F
TEKAMAH        CLEAR     57  55  93 SE5       29.98S
$$

NEZ050>053-065>068-078-088>093-040900-
SOUTHEAST NEBRASKA

CITY           SKY/WX    TMP DP  RH WIND       PRES   REMARKS
LINCOLN        CLEAR     65  59  81 S3        30.00F
OMAHA EPPLEY   CLEAR     62  56  80 CALM      29.99S
FALLS CITY     CLEAR     62  57  83 CALM      29.98S
PLATTSMOUTH    CLEAR     63  54  74 S5        30.00S
$$

NEZ044-045-051>053-067-040900-
OMAHA AREA

CITY           SKY/WX    TMP DP  RH WIND       PRES   REMARKS
OMAHA EPPLEY   CLEAR     62  56  80 CALM      29.99S
FREMONT        CLEAR     65  58  77 CALM      29.99F
MILLARD          N/A     59  58  96 CALM      29.99S FOG
OFFUTT AFB     CLEAR     54  54  99 CALM      29.98S
PLATTSMOUTH    CLEAR     63  54  74 S5        30.00S
$$



USA.gov is the U.S. government's official web portal to all federal, state and local government web resources and services.